Regional Weather Roundup
Issued by NWS

Home | Current Version | Previous Version | Text Only | Print | Product List | Glossary On
Versions: 1 2 3 4 5 6 7 8 9 10 11 12 13 14 15 16 17 18 19 20 21 22 23 24 25 26 27 28 29 30 31 32 33 34 35 36 37 38 39 40 41 42 43 44 45 46 47 48 49 50
000
ASUS43 KLMK 021410
RWRKY
KENTUCKY REGIONAL WEATHER ROUNDUP
NATIONAL WEATHER SERVICE LOUISVILLE KY
900 AM EST MON MAR 02 2015

NOTE "FAIR" INDICATES FEW OR NO CLOUDS BELOW 12,000 FEET
WITH NO SIGNIFICANT WEATHER AND/OR OBSTRUCTIONS TO VISIBILITY.

KYZ001>023-026-027-061>063-070>075-021500-
WESTERN AND SOUTH CENTRAL KENTUCKY

CITY           SKY/WX    TMP DP  RH WIND       PRES   REMARKS
PADUCAH        MOSUNNY   29  18  63 NE13      30.52S WCI  19
HENDERSON      PTSUNNY   27  18  69 NE9       30.55F WCI  17
OWENSBORO      PTSUNNY   27  18  69 NE7       30.56R WCI  20
HOPKINSVILLE   SUNNY     29  23  78 NE13      30.51R WCI  18
BOWLING GREEN  MOSUNNY   30  22  72 N8        30.51F WCI  22
GLASGOW        MOSUNNY   30  25  80 NE7       30.51S WCI  23
$$

KYZ024-025-028>034-038-045-046-053-021500-
NORTH CENTRAL KENTUCKY

CITY           SKY/WX    TMP DP  RH WIND       PRES   REMARKS
LOUISVILLE/SDF PTSUNNY   29  17  61 N8        30.54R WCI  21
LOUISVILLE/LOU SUNNY     28  18  66 NE6       30.54R WCI  22
FORT KNOX      MOSUNNY   27  19  71 N8        30.50R WCI  18
$$

KYZ035>037-039>044-047>052-055>060-089>105-021500-
NORTHEAST KENTUCKY

CITY           SKY/WX    TMP DP  RH WIND       PRES   REMARKS
LEXINGTON      SUNNY     26  18  71 N8        30.51R WCI  18
COVINGTON      PTSUNNY   23  14  68 N5        30.50R WCI  17
FRANKFORT      SUNNY     27  18  69 N6        30.50R WCI  20
$$

KYZ054-064>069-076>088-106>120-021500-
SOUTHEAST KENTUCKY

CITY           SKY/WX    TMP DP  RH WIND       PRES   REMARKS
JACKSON        PTSUNNY   31  26  82 N6        30.46R WCI  25
LONDON         CLOUDY    33  27  78 NE8       30.46R WCI  26
SOMERSET       CLOUDY    32  28  86 NE9       30.50R WCI  24
MIDDLESBORO    CLOUDY    34  32  91 NW8       30.45R WCI  28
MONTICELLO     CLOUDY    33  30  89 N7        30.51R WCI  27
$$



USA.gov is the U.S. government's official web portal to all federal, state and local government web resources and services.